[[{"header":{"parameterUnit":"m.s-1","parameterCategory":1,"la1":30.2991,"la2":30.254,"lo1":-89.0895,"lo2":-89.0444,"dy":0.0017,"dx":0.0017,"nx":28,"ny":28,"refTime":"2024-09-03T21:00:00:Z","depth":0,"parameterNumber":2,"parameterNumberName":"U-component_of_WINDS"},"data":[0,0,0,0,0,0,0,0,0,0,0,0,0,0,0,0,0,0,0,0,0,0,0,0,0,0,0,0,0,0,0,0,0,0,0,0,0,0,0,0,0,0,0,0,0,0,0,0,0,0,0,0,0,0,0,0,0,0,-8.5219,-8.522,0,-8.5323,-8.5324,-8.5326,-8.5254,-8.5251,-8.5248,-8.5245,-8.5345,-8.5351,-8.5356,0,0,0,0,0,0,0,0,0,0,0,0,0,-8.4954,-8.4959,-8.5219,-8.522,-8.5222,-8.5323,-8.5325,-8.5326,-8.5255,-8.5251,-8.5247,-8.5243,-8.5344,-8.535,-8.5357,0,0,0,0,0,0,0,0,0,0,0,0,0,-8.5065,-8.4961,-8.5219,-8.5199,-8.5198,-8.5323,-8.5325,-8.5326,-8.5256,-8.5251,-8.5246,-8.5242,-8.5341,-8.535,-8.5358,-8.5507,0,0,-8.5384,-8.5388,0,0,0,0,0,0,0,0,-8.5058,-8.5074,-8.52,-8.52,-8.52,-8.5271,-8.5268,-8.5387,-8.5257,-8.5234,-8.5245,-8.5239,-8.5324,-8.5334,-8.5364,-8.5511,-8.5516,-8.5385,-8.539,-8.5393,-8.5396,0,0,0,0,0,0,0,-8.5051,-8.5069,-8.526,-8.5202,-8.5202,-8.5183,-8.5193,-8.529,-8.5304,-8.5235,-8.523,-8.5244,-8.5323,-8.5356,-8.5365,-8.5517,-8.5384,-8.5392,-8.5397,-8.54,-8.5791,-8.5796,0,0,0,0,0,0,-8.5046,-8.5063,-8.5257,-8.5263,-8.5116,-8.5192,-8.5203,-8.5253,-8.5303,-8.5306,-8.5248,-8.524,-8.5343,-8.5356,-8.5369,-8.5544,-8.5393,-8.5401,-8.5406,-8.5786,-8.5792,-8.5798,0,0,0,0,0,0,-8.504,-8.5064,-8.5252,-8.5162,-8.5185,-8.5201,-8.5258,-8.5257,-8.529,-8.5313,-8.5314,-8.5279,-8.534,-8.5357,-8.5473,-8.5546,-8.5405,-8.5413,-8.578,-8.5788,-8.5795,-8.5897,0,0,0,0,0,0,-8.5033,-8.5062,-8.5119,-8.5164,-8.519,-8.5356,-8.5262,-8.5263,-8.5305,-8.5296,-8.5342,-8.5345,-8.5338,-8.5461,-8.5482,-8.5555,-8.542,-8.5773,-8.5783,-8.5793,-8.5887,-8.5907,-8.5925,0,0,0,0,0,-8.5024,-8.5143,-8.5123,-8.5146,-8.5262,-8.5361,-8.5375,-8.5366,-8.5312,-8.5368,-8.5384,-8.5344,-8.5537,-8.5473,-8.5496,-8.5574,-8.5768,-8.578,-8.5792,-8.5878,-8.5903,-8.5924,0,0,0,0,0,0,-8.5103,-8.5148,-8.5126,-8.5264,-8.531,-8.5349,-8.542,-8.5393,-8.5453,-8.5442,-8.5426,-8.5437,-8.5558,-8.5579,-8.5507,-8.572,-8.5644,-8.5661,-8.5701,-8.5725,-8.5744,-8.5734,-8.5427,0,0,0,0,0,-8.5137,-8.5215,-8.525,-8.5368,-8.5392,-8.5403,-8.5445,-8.5435,-8.548,-8.5498,-8.5522,-8.5566,-8.5637,-8.5683,-8.5749,-8.5892,-8.5899,-8.5957,-8.5976,-8.5991,-8.6004,-8.6079,-8.6104,-8.5837,-8.5837,-8.5837,0,0,-8.5206,-8.5241,-8.5291,-8.5385,-8.5418,-8.5498,-8.5419,-8.5506,-8.5564,-8.5511,-8.5621,-8.5642,-8.569,-8.582,-8.5878,-8.584,-8.6081,-8.6006,-8.6018,-8.6023,-8.6094,-8.6119,-8.6141,-8.5845,-8.5844,-8.5842,0,0,-8.5373,-8.5409,-8.551,-8.5547,-8.5601,-8.5608,-8.5633,-8.5678,-8.5689,-8.5801,-8.5763,-8.5832,-8.5954,-8.599,-8.6024,-8.6209,-8.6173,-8.6231,-8.6327,-8.6401,-8.6422,-8.644,-8.6502,-8.6525,-8.6245,-8.6246,-8.6246,0,-8.5451,-8.5571,-8.5565,-8.5655,-8.5696,-8.5657,-8.5758,-8.5794,-8.5866,-8.5894,-8.5853,-8.6006,-8.6036,-8.6172,-8.6218,-8.6249,-8.6274,-8.6222,-8.642,-8.6438,-8.6455,-8.6514,-8.6538,-8.6252,-8.6251,-8.6251,-8.625,0,-8.5663,-8.5747,-8.5822,-8.5895,-8.5946,-8.6042,-8.6048,-8.6101,-8.6088,-8.6099,-8.6213,-8.6249,-8.6321,-8.6354,-8.6341,-8.6489,-8.6464,-8.6422,-8.6343,-8.6487,-8.6542,-8.6565,-8.6261,-8.6259,-8.6257,-8.6255,0,0,-8.5875,-8.5948,-8.5975,-8.6007,-8.6066,-8.613,-8.6224,-8.6298,-8.6341,-8.6394,-8.647,-8.6577,-8.6539,-8.6578,-8.6569,-8.6635,-8.6775,-8.6584,-8.6585,-8.6614,-8.6937,-8.6965,-8.6991,-8.6755,-8.676,-8.6763,-8.6932,0,-8.6041,-8.6206,-8.6205,-8.6357,-8.6433,-8.6399,-8.6481,-8.6525,-8.654,-8.6605,-8.6621,-8.6695,-8.6641,-8.6664,-8.6728,-8.6745,-8.6839,-8.6733,-8.6822,-8.6825,-8.6805,-8.702,-8.7049,-8.7206,-8.6954,-8.6957,-8.696,0,-8.6255,-8.6317,-8.6477,-8.6526,-8.6558,-8.6631,-8.6698,-8.6764,-8.6813,-8.6819,-8.6866,-8.6848,-8.6942,-8.6867,-8.6995,-8.6923,-8.696,-8.6975,-8.6981,-8.6983,-8.6897,-8.7024,-8.7256,-8.7278,-8.6995,-8.6992,-8.699,0,-8.6388,-8.6513,-8.6624,-8.6654,-8.6714,-8.6767,-8.6794,-8.684,-8.6884,-8.6944,-8.6972,-8.7042,-8.7078,-8.7132,-8.7133,-8.7079,-8.7262,-8.7187,-8.7266,-8.7266,-8.73,-8.7297,-8.7536,-8.7335,-8.7334,-8.7334,-8.7333,0,-8.657,-8.6668,-8.6685,-8.6752,-8.6861,-8.6861,-8.6968,-8.699,-8.7032,-8.7102,-8.7079,-8.7145,-8.7146,-8.7213,-8.7215,-8.7319,-8.7338,-8.7343,-8.7341,-8.7341,-8.734,-8.736,-8.7347,-8.734,-8.7339,-8.7337,-8.7336,0,-8.6733,-8.6749,-8.6868,-8.6918,-8.6933,-8.701,-8.7052,-8.7116,-8.7131,-8.722,-8.7241,-8.7263,-8.7342,-8.735,-8.7441,-8.7443,-8.7567,-8.7557,-8.755,-8.7546,-8.7623,-8.7614,-8.788,-8.7913,-8.7695,-8.7697,-8.7699,0,-8.6845,-8.692,-8.6979,-8.7026,-8.7057,-8.7132,-8.7179,-8.7182,-8.7231,-8.7296,-8.7351,-8.7429,-8.7489,-8.7617,-8.7639,-8.7709,-8.7696,-8.7785,-8.7706,-8.7704,-8.7692,-8.7685,-8.7691,-8.7798,-8.78,-8.7802,-8.7804,0,-8.704,-8.7045,-8.7113,-8.7186,-8.7243,-8.7299,-8.7352,-8.7392,-8.7402,-8.7458,-8.7539,-8.7587,-8.7682,-8.7758,-8.7827,-8.7854,-8.783,-8.783,-8.7851,-8.7849,-8.784,-8.7841,-8.7586,-8.7822,-8.782,-8.7819,-8.7818,-8.7817,-8.7177,-8.7242,-8.7294,-8.7371,-8.7413,-8.7464,-8.7526,-8.7551,-8.762,-8.7697,-8.7697,-8.7785,-8.7835,-8.7926,-8.7959,-8.8027,-8.7997,-8.8029,-8.8035,-8.8042,-8.8047,-8.7836,-8.804,-8.804,-8.8039,-8.8039,-8.8039,0,-8.7366,-8.74,-8.7472,-8.7548,-8.7609,-8.7587,-8.7646,-8.7697,-8.7776,-8.7826,-8.7888,-8.7981,-8.8056,-8.8087,-8.8159,-8.8208,-8.8199,-8.8227,-8.8219,-8.8226,-8.8072,-8.8044,-8.8233,-8.8233,-8.8233,-8.8233,-8.8233,-8.8233,-8.7471,-8.7579,-8.7591,-8.7719,-8.7752,-8.784,-8.7875,-8.7921,-8.7961,-8.8067,-8.813,-8.8151,-8.8193,-8.8269,-8.8336,-8.8344,-8.8369,-8.84,-8.8402,-8.8257,-8.8237,-8.8218,-8.8191,-8.8407,-8.8408,-8.8549,-8.8551,-8.8552]},{"header":{"parameterUnit":"m.s-1","parameterCategory":1,"la1":30.2991,"la2":30.254,"lo1":-89.0895,"lo2":-89.0444,"dy":0.0017,"dx":0.0017,"nx":28,"ny":28,"refTime":"2024-09-03T21:00:00:Z","depth":0,"parameterNumber":3,"parameterNumberName":"V-component_of_WINDS"},"data":[0,0,0,0,0,0,0,0,0,0,0,0,0,0,0,0,0,0,0,0,0,0,0,0,0,0,0,0,0,0,0,0,0,0,0,0,0,0,0,0,0,0,0,0,0,0,0,0,0,0,0,0,0,0,0,0,0,0,2.572,2.572,0,2.5682,2.5682,2.5682,2.5631,2.5631,2.563,2.5629,2.5588,2.5588,2.5587,0,0,0,0,0,0,0,0,0,0,0,0,0,2.5748,2.5748,2.572,2.572,2.5719,2.5683,2.5682,2.5681,2.5632,2.5631,2.563,2.5629,2.5588,2.5588,2.5587,0,0,0,0,0,0,0,0,0,0,0,0,0,2.5726,2.5748,2.572,2.569,2.5687,2.5683,2.5682,2.5681,2.5632,2.5631,2.5629,2.5628,2.5588,2.5588,2.5587,2.5609,0,0,2.5586,2.5585,0,0,0,0,0,0,0,0,2.5727,2.5725,2.5695,2.5692,2.5689,2.566,2.5677,2.5657,2.5632,2.5653,2.5629,2.5628,2.5613,2.561,2.5606,2.5607,2.5605,2.5586,2.5585,2.5585,2.5585,0,0,0,0,0,0,0,2.5729,2.5726,2.5705,2.5695,2.5691,2.5678,2.5673,2.5673,2.564,2.5651,2.5647,2.5643,2.5611,2.5606,2.5604,2.5604,2.5586,2.5585,2.5585,2.5585,2.5622,2.5623,0,0,0,0,0,0,2.5735,2.5728,2.5706,2.5704,2.5705,2.5679,2.5673,2.5671,2.564,2.5634,2.5645,2.5641,2.5608,2.5605,2.5603,2.5626,2.5585,2.5585,2.5584,2.562,2.5622,2.5623,0,0,0,0,0,0,2.5736,2.5734,2.5708,2.5715,2.5711,2.5679,2.5677,2.5671,2.5666,2.5635,2.5629,2.5646,2.5607,2.5604,2.5608,2.5624,2.5584,2.5584,2.5619,2.5621,2.5623,2.5673,0,0,0,0,0,0,2.5737,2.5734,2.5742,2.5716,2.5711,2.5714,2.5678,2.5671,2.5666,2.5661,2.5635,2.5629,2.5606,2.5609,2.5607,2.5623,2.5584,2.5617,2.562,2.5622,2.567,2.5677,2.5682,0,0,0,0,0,2.5738,2.5757,2.5743,2.5741,2.572,2.5715,2.5712,2.5685,2.5667,2.5675,2.5655,2.563,2.5623,2.561,2.5608,2.5623,2.5616,2.5619,2.5622,2.5667,2.5675,2.5682,0,0,0,0,0,0,2.5786,2.5753,2.5737,2.5748,2.5735,2.5707,2.5716,2.5695,2.5686,2.5682,2.5647,2.5642,2.5651,2.5637,2.5623,2.5642,2.5616,2.5618,2.5651,2.5658,2.5665,2.5667,2.5583,0,0,0,0,0,2.5798,2.5798,2.5769,2.5782,2.5776,2.5747,2.5744,2.5725,2.5709,2.5703,2.5683,2.5669,2.5663,2.566,2.5653,2.5668,2.5662,2.5678,2.5684,2.5689,2.5692,2.5699,2.5706,2.5633,2.5633,2.5633,0,0,2.5823,2.5805,2.5806,2.5791,2.5778,2.5778,2.5743,2.5744,2.5743,2.5703,2.5706,2.5691,2.5673,2.5683,2.5686,2.5672,2.571,2.5693,2.5697,2.5697,2.5702,2.5709,2.5716,2.5635,2.5634,2.5634,0,0,2.5868,2.5854,2.5864,2.5852,2.5834,2.5815,2.5817,2.5792,2.5781,2.5784,2.5754,2.5753,2.5744,2.5732,2.5725,2.5767,2.5743,2.5765,2.5797,2.5805,2.5811,2.5816,2.5831,2.5836,2.5768,2.5768,2.5768,0,2.59,2.5899,2.5871,2.5874,2.5868,2.5833,2.5842,2.5832,2.5812,2.5809,2.5794,2.5782,2.5767,2.5774,2.5784,2.578,2.5781,2.5768,2.5812,2.5817,2.5821,2.5835,2.5841,2.5771,2.577,2.577,2.577,0,2.5941,2.594,2.595,2.5933,2.5928,2.5935,2.5907,2.5906,2.5887,2.5869,2.5873,2.5854,2.5843,2.5843,2.5824,2.5847,2.5839,2.5819,2.5791,2.5831,2.5844,2.5849,2.5775,2.5774,2.5773,2.5772,0,0,2.6014,2.5982,2.5986,2.5978,2.5956,2.5955,2.596,2.595,2.5949,2.5937,2.594,2.5934,2.5915,2.5907,2.5886,2.5893,2.5928,2.5871,2.587,2.5883,2.5952,2.5968,2.5975,2.5912,2.5913,2.5914,2.5954,0,2.6054,2.6061,2.6037,2.605,2.6049,2.6016,2.602,2.6007,2.5991,2.5988,2.597,2.5966,2.5941,2.5936,2.5942,2.5922,2.5941,2.5919,2.5914,2.5915,2.592,2.5981,2.5998,2.6037,2.5959,2.596,2.596,0,2.6103,2.6094,2.6108,2.6085,2.6084,2.6088,2.6078,2.6075,2.606,2.6047,2.6039,2.6016,2.6019,2.5993,2.5996,2.5982,2.5979,2.5969,2.597,2.5968,2.594,2.5981,2.6048,2.6054,2.5968,2.5967,2.5966,0,2.6155,2.6147,2.6154,2.6148,2.6122,2.6126,2.6115,2.6099,2.6094,2.6085,2.6082,2.6073,2.6067,2.6061,2.6035,2.6019,2.6042,2.6014,2.6032,2.6032,2.6038,2.6038,2.6105,2.6036,2.6036,2.6036,2.6036,0,2.6203,2.6213,2.6177,2.6182,2.6192,2.6163,2.6173,2.6159,2.6144,2.6145,2.6116,2.6117,2.6084,2.6081,2.6062,2.6068,2.6065,2.6055,2.605,2.6058,2.6059,2.6055,2.6052,2.6037,2.6037,2.6037,2.6036,0,2.6263,2.624,2.6245,2.6221,2.6215,2.6223,2.6202,2.6205,2.6188,2.6189,2.6188,2.616,2.6156,2.613,2.612,2.6107,2.612,2.6109,2.6125,2.6122,2.6141,2.614,2.6208,2.6216,2.6142,2.6143,2.6144,0,2.6295,2.6302,2.6278,2.6277,2.6268,2.6267,2.6263,2.6235,2.6232,2.6215,2.622,2.6213,2.6207,2.6201,2.618,2.6172,2.6161,2.6185,2.6159,2.6168,2.6161,2.6161,2.6162,2.6191,2.6192,2.6193,2.6193,0,2.6355,2.6343,2.6339,2.6331,2.6327,2.6319,2.6309,2.631,2.6279,2.6277,2.6273,2.6268,2.6258,2.6252,2.624,2.6229,2.6206,2.6202,2.6206,2.6214,2.6223,2.6219,2.6141,2.62,2.6199,2.6199,2.6199,2.6198,2.6402,2.6407,2.6391,2.6387,2.6377,2.6369,2.6371,2.6354,2.635,2.6341,2.6324,2.6323,2.6307,2.6289,2.628,2.6278,2.6264,2.627,2.6271,2.6273,2.6277,2.6224,2.6275,2.6275,2.6275,2.6275,2.6274,0,2.646,2.6449,2.6446,2.6434,2.6431,2.6411,2.6399,2.6398,2.6397,2.6384,2.6379,2.6374,2.6369,2.6347,2.6339,2.6342,2.6331,2.6341,2.634,2.6338,2.6289,2.6287,2.6349,2.6349,2.6349,2.6349,2.6349,2.6349,2.649,2.6497,2.6484,2.6486,2.6474,2.6473,2.6468,2.646,2.645,2.6447,2.6442,2.6429,2.6413,2.6404,2.6398,2.6391,2.639,2.6403,2.6393,2.6348,2.6341,2.6334,2.6332,2.6403,2.6403,2.6442,2.6442,2.6443]}]]